Flag Weather past 2 weeks in Jülich, North Rhine-Westphalia, Germany

Now
45 °F

Passing clouds.


Feels Like: 37 °F
Forecast: 37 / 46 °F
Wind: 17 mph from East

Location: Geilenkirchen Airport

Current Time: Nov 28, 2014 at 8:39:24 AM

Latest Report: Nov 28, 2014 at 7:50 AM


Visibility: 4 mi

Pressure: 29.74 "Hg

Humidity: 87%

Dew point: 41 °F

Location of JülichLocation

Historic Weather in Jülich — Graph

°F

Jülich temperature yesterday

Maximum temperature yesterday: 46 °F (at 12:50 PM)
Minimum temperature yesterday: 43 °F (at 12:50 AM)
Average temperature yesterday: 44 °F

Past Weeks' High & Low Weather Summary

 TemperatureHumidityPressure
High57 °F (Nov 13, 12:50 PM)100% (Nov 13, 7:50 PM)30.33 "Hg (Nov 13, 7:50 PM)
Low30 °F (Nov 25, 5:50 AM)63% (Nov 13, 1:50 PM)29.53 "Hg (Nov 16, 8:50 PM)
Average45 °F90%29.98 "Hg
* Reported Nov 13 6:50 AM — Nov 28 6:50 AM, Jülich, Weather by CustomWeather, © 2014

Note: Actual official high and low records may vary slightly from our data, if they occured in-between our weather recording intervals... More about our weather records

Advertising

Jülich weather history for previous 24 hours

 ConditionsComfort  
Time TempWeatherWind HumidityBarometerVisibility
6:50 AM
Nov 28
43 °FPartly cloudy.16 mph93%29.71 "Hg5 mi
5:50 AM43 °FPartly cloudy.16 mph93%29.71 "Hg4 mi
4:50 AM43 °FPassing clouds.14 mph93%29.71 "Hg4 mi
3:50 AM43 °FPassing clouds.12 mph93%29.74 "Hg4 mi
2:50 AM43 °FPartly cloudy.12 mph93%29.74 "Hg4 mi
1:50 AM43 °FPassing clouds.12 mph93%29.74 "Hg4 mi
12:50 AM43 °FPassing clouds.8 mph93%29.74 "Hg4 mi
11:50 PM
Nov 27
43 °FPassing clouds.9 mph93%29.74 "Hg4 mi
10:50 PM43 °FPassing clouds.9 mph93%29.71 "Hg4 mi
9:50 PM43 °FPassing clouds.12 mph93%29.71 "Hg4 mi
8:50 PM45 °FPassing clouds.12 mph93%29.71 "Hg4 mi
7:50 PM45 °FPassing clouds.12 mph93%29.71 "Hg2 mi
6:50 PM45 °FLight rain. Fog.15 mph93%29.71 "Hg3 mi
5:50 PM45 °FLight rain. Fog.15 mph93%29.71 "Hg2 mi
4:50 PM45 °FLight rain. Partly cloudy.15 mph93%29.71 "Hg3 mi
3:50 PM45 °FLight rain. Broken clouds.13 mph93%29.71 "Hg3 mi
2:50 PM45 °FRain. Partly sunny.9 mph100%29.71 "Hg2 mi
1:50 PM46 °FLight rain. Partly sunny.9 mph93%29.74 "Hg2 mi
12:50 PM46 °FLight rain. Broken clouds.8 mph87%29.74 "Hg4 mi
11:50 AM45 °FLight rain. Broken clouds.10 mph93%29.77 "Hg4 mi
10:50 AM45 °FLight rain. Partly sunny.8 mph87%29.77 "Hg6 mi
9:50 AM45 °FPartly sunny.8 mph87%29.77 "Hg5 mi
8:50 AM43 °FBroken clouds.9 mph93%29.77 "Hg6 mi
Weather by CustomWeather, © 2014

See weather overviewHow to use our weather pages